When you browse on this site, cookies collect data to enhance your experience and personalize the content and advertising you see.
Visit our Privacy Policy to learn more. By continuing to use the site, you agree to this use of cookies and data.
  • en Suisse
  • Liste des pays
  • À 7 jours
  • Température de l'eau
  • Carte météo
  • Widgets météo
  • user-avatar
    Se connecter

    Météo par heure à Dinajpur

    Ce jour, 14 Octobre, Lundi

    Heure Température Précipitation Vent Pression Humidité
    00:00 +25°C° 0 mm 1 m/s 756 mmHg 67%
    01:00 +24°C° 0 mm 1 m/s 756 mmHg 69%
    02:00 +24°C° 0 mm 1 m/s 756 mmHg 70%
    03:00 +24°C° 0 mm 1 m/s 756 mmHg 72%
    04:00 +23°C° 0 mm 1 m/s 756 mmHg 73%
    05:00 +23°C° 0 mm 1 m/s 756 mmHg 74%
    06:00 +21°C° 0 mm 0 m/s 756 mmHg 77%
    07:00 +25°C° 0 mm 1 m/s 757 mmHg 73%
    08:00 +27°C° 0 mm 1 m/s 757 mmHg 69%
    09:00 +29°C° 0 mm 1 m/s 757 mmHg 65%
    10:00 +30°C° 0 mm 1 m/s 757 mmHg 61%
    11:00 +31°C° 0 mm 2 m/s 757 mmHg 58%
    12:00 +32°C° 0 mm 1 m/s 757 mmHg 52%
    13:00 +32°C° 0 mm 1 m/s 756 mmHg 51%
    14:00 +32°C° 0 mm 1 m/s 756 mmHg 50%
    15:00 +32°C° 0 mm 1 m/s 755 mmHg 49%
    16:00 +31°C° 0 mm 1 m/s 755 mmHg 53%
    17:00 +27°C° 0 mm 0 m/s 755 mmHg 57%
    18:00 +26°C° 0 mm 0 m/s 755 mmHg 62%
    19:00 +25°C° 0 mm 0 m/s 756 mmHg 63%
    20:00 +25°C° 0 mm 0 m/s 756 mmHg 64%
    21:00 +24°C° 0 mm 0 m/s 757 mmHg 65%
    22:00 +24°C° 0 mm 0 m/s 757 mmHg 66%
    23:00 +26°C° 0 mm 1 m/s 757 mmHg 67%

    Demain, 15 Octobre, Mardi

    Heure Température Précipitation Vent Pression Humidité
    00:00 +25°C° 0 mm 1 m/s 757 mmHg 67%
    01:00 +25°C° 0 mm 1 m/s 756 mmHg 68%
    02:00 +25°C° 0 mm 1 m/s 756 mmHg 70%
    03:00 +24°C° 0 mm 1 m/s 756 mmHg 71%
    04:00 +24°C° 0 mm 1 m/s 756 mmHg 73%
    05:00 +24°C° 0 mm 1 m/s 756 mmHg 74%
    06:00 +23°C° 0 mm 1 m/s 756 mmHg 76%
    07:00 +25°C° 0 mm 1 m/s 757 mmHg 74%
    08:00 +27°C° 0 mm 1 m/s 757 mmHg 71%
    09:00 +28°C° 0 mm 1 m/s 758 mmHg 69%
    10:00 +30°C° 0 mm 2 m/s 758 mmHg 67%
    11:00 +31°C° 0 mm 2 m/s 757 mmHg 64%
    12:00 +32°C° 0 mm 2 m/s 757 mmHg 61%
    13:00 +32°C° 0 mm 1 m/s 756 mmHg 60%
    14:00 +32°C° 0 mm 1 m/s 756 mmHg 59%
    15:00 +30°C° 0 mm 0 m/s 755 mmHg 57%
    16:00 +29°C° 0 mm 0 m/s 755 mmHg 61%
    17:00 +30°C° 0 mm 1 m/s 755 mmHg 65%
    18:00 +29°C° 0 mm 1 m/s 755 mmHg 68%
    19:00 +28°C° 0 mm 1 m/s 756 mmHg 70%
    20:00 +26°C° 0 mm 0 m/s 756 mmHg 71%
    21:00 +25°C° 0 mm 0 m/s 757 mmHg 73%
    22:00 +25°C° 0 mm 0 m/s 757 mmHg 73%
    23:00 +24°C° 0 mm 0 m/s 757 mmHg 74%

    Après-demain, 16 Octobre, Mercredi

    Heure Température Précipitation Vent Pression Humidité
    00:00 +24°C° 0 mm 0 m/s 757 mmHg 75%
    01:00 +26°C° 0 mm 1 m/s 757 mmHg 76%
    02:00 +25°C° 0 mm 1 m/s 756 mmHg 76%
    03:00 +25°C° 0 mm 1 m/s 756 mmHg 77%
    04:00 +25°C° 0 mm 1 m/s 757 mmHg 79%
    05:00 +24°C° 0 mm 1 m/s 757 mmHg 81%
    06:00 +24°C° 0 mm 1 m/s 757 mmHg 83%
    07:00 +26°C° 0 mm 1 m/s 758 mmHg 79%
    08:00 +27°C° 0 mm 1 m/s 758 mmHg 76%
    09:00 +29°C° 0 mm 1 m/s 758 mmHg 72%
    10:00 +30°C° 0 mm 1 m/s 758 mmHg 67%
    11:00 +30°C° 0 mm 0 m/s 758 mmHg 61%
    12:00 +31°C° 0 mm 0 m/s 757 mmHg 56%
    13:00 +33°C° 0 mm 1 m/s 757 mmHg 54%
    14:00 +33°C° 0 mm 1 m/s 756 mmHg 52%
    15:00 +33°C° 0 mm 1 m/s 755 mmHg 50%
    16:00 +31°C° 0 mm 1 m/s 755 mmHg 54%
    17:00 +30°C° 0 mm 1 m/s 755 mmHg 58%
    18:00 +28°C° 0 mm 1 m/s 755 mmHg 62%
    19:00 +27°C° 0 mm 1 m/s 755 mmHg 64%
    20:00 +27°C° 0 mm 1 m/s 756 mmHg 66%
    21:00 +26°C° 0 mm 1 m/s 756 mmHg 68%
    22:00 +26°C° 0 mm 1 m/s 757 mmHg 69%
    23:00 +26°C° 0 mm 1 m/s 757 mmHg 70%

    17 Octobre, Jeudi

    Heure Température Précipitation Vent Pression Humidité
    00:00 +26°C° 0 mm 1 m/s 757 mmHg 71%
    01:00 +25°C° 0 mm 1 m/s 757 mmHg 73%
    02:00 +25°C° 0 mm 1 m/s 757 mmHg 74%
    03:00 +25°C° 0 mm 1 m/s 757 mmHg 75%
    04:00 +25°C° 0 mm 1 m/s 757 mmHg 78%
    05:00 +24°C° 0 mm 1 m/s 757 mmHg 81%
    06:00 +24°C° 0 mm 1 m/s 757 mmHg 84%
    07:00 +26°C° 0 mm 1 m/s 758 mmHg 80%
    08:00 +27°C° 0 mm 1 m/s 758 mmHg 76%
    09:00 +29°C° 0 mm 1 m/s 758 mmHg 71%
    10:00 +30°C° 0 mm 1 m/s 758 mmHg 65%
    11:00 +30°C° 0 mm 0 m/s 758 mmHg 58%
    12:00 +31°C° 0 mm 0 m/s 757 mmHg 52%
    13:00 +31°C° 0 mm 0 m/s 757 mmHg 52%
    14:00 +33°C° 0 mm 1 m/s 756 mmHg 52%
    15:00 +32°C° 0 mm 1 m/s 755 mmHg 53%
    16:00 +31°C° 0 mm 1 m/s 755 mmHg 57%
    17:00 +30°C° 0 mm 1 m/s 755 mmHg 62%
    18:00 +28°C° 0 mm 1 m/s 755 mmHg 66%
    19:00 +28°C° 0 mm 1 m/s 755 mmHg 67%
    20:00 +27°C° 0 mm 1 m/s 756 mmHg 68%
    21:00 +27°C° 0 mm 1 m/s 756 mmHg 69%
    22:00 +27°C° 0 mm 1 m/s 756 mmHg 69%
    23:00 +27°C° 0 mm 1 m/s 756 mmHg 70%

    18 Octobre, Vendredi

    Heure Température Précipitation Vent Pression Humidité
    00:00 +25°C° 0 mm 0 m/s 756 mmHg 70%
    01:00 +26°C° 0 mm 1 m/s 756 mmHg 71%
    02:00 +26°C° 0 mm 1 m/s 756 mmHg 72%
    03:00 +26°C° 0 mm 1 m/s 756 mmHg 73%
    04:00 +26°C° 0 mm 1 m/s 756 mmHg 75%
    05:00 +25°C° 0 mm 1 m/s 756 mmHg 77%
    06:00 +25°C° 0 mm 1 m/s 757 mmHg 80%
    07:00 +26°C° 0 mm 1 m/s 757 mmHg 76%
    08:00 +28°C° 0 mm 1 m/s 758 mmHg 73%
    09:00 +29°C° 0 mm 1 m/s 758 mmHg 70%
    10:00 +30°C° 0.1 mm 1 m/s 758 mmHg 66%
    11:00 +31°C° 0.1 mm 1 m/s 758 mmHg 61%
    12:00 +32°C° 0.1 mm 1 m/s 757 mmHg 57%
    13:00 +32°C° 0 mm 1 m/s 757 mmHg 56%
    14:00 +32°C° 0 mm 1 m/s 756 mmHg 55%
    15:00 +32°C° 0 mm 1 m/s 755 mmHg 55%
    16:00 +31°C° 0 mm 1 m/s 755 mmHg 58%
    17:00 +30°C° 0 mm 1 m/s 755 mmHg 62%
    18:00 +28°C° 0 mm 1 m/s 755 mmHg 66%
    19:00 +28°C° 0 mm 1 m/s 755 mmHg 66%
    20:00 +27°C° 0 mm 1 m/s 756 mmHg 66%
    21:00 +27°C° 0 mm 1 m/s 756 mmHg 66%
    22:00 +27°C° 0 mm 1 m/s 756 mmHg 68%
    23:00 +26°C° 0 mm 1 m/s 756 mmHg 69%

    19 Octobre, Samedi

    Heure Température Précipitation Vent Pression Humidité
    00:00 +24°C° 0 mm 0 m/s 756 mmHg 70%
    01:00 +26°C° 0 mm 1 m/s 756 mmHg 70%
    02:00 +26°C° 0 mm 1 m/s 756 mmHg 71%
    03:00 +25°C° 0 mm 1 m/s 756 mmHg 71%
    04:00 +25°C° 0 mm 1 m/s 756 mmHg 72%
    05:00 +25°C° 0 mm 1 m/s 756 mmHg 73%
    06:00 +25°C° 0 mm 1 m/s 757 mmHg 74%
    07:00 +26°C° 0 mm 1 m/s 757 mmHg 71%
    08:00 +28°C° 0 mm 1 m/s 758 mmHg 68%
    09:00 +29°C° 0 mm 1 m/s 758 mmHg 65%
    10:00 +30°C° 0 mm 1 m/s 758 mmHg 61%
    11:00 +31°C° 0 mm 1 m/s 758 mmHg 57%
    12:00 +33°C° 0 mm 1 m/s 757 mmHg 53%
    13:00 +33°C° 0 mm 1 m/s 756 mmHg 52%
    14:00 +34°C° 0 mm 2 m/s 756 mmHg 52%
    15:00 +34°C° 0 mm 2 m/s 755 mmHg 51%
    16:00 +32°C° 0 mm 2 m/s 755 mmHg 56%
    17:00 +30°C° 0 mm 2 m/s 755 mmHg 62%
    18:00 +29°C° 0 mm 2 m/s 755 mmHg 67%
    19:00 +28°C° 0 mm 2 m/s 755 mmHg 69%
    20:00 +28°C° 0 mm 1 m/s 755 mmHg 71%
    21:00 +27°C° 0 mm 1 m/s 756 mmHg 73%
    22:00 +27°C° 0 mm 1 m/s 756 mmHg 74%
    23:00 +27°C° 0 mm 1 m/s 756 mmHg 74%
    Voir plus